When you browse on this site, cookies collect data to enhance your experience and personalize the content and advertising you see.
Visit our Privacy Policy to learn more. By continuing to use the site, you agree to this use of cookies and data.
EN

Hourly Weather Myrnohrad (Dymytrov)

Today, 12 July, Sunday

Time Temperature Precipitation Wind Pressure Humidity
00:00 +19°C° 0 mm 3 mps 744 mmHg 65%
01:00 +18°C° 0 mm 3 mps 744 mmHg 66%
02:00 +18°C° 0 mm 3 mps 744 mmHg 68%
03:00 +18°C° 0 mm 3 mps 744 mmHg 70%
04:00 +18°C° 0 mm 3 mps 743 mmHg 72%
05:00 +18°C° 0 mm 3 mps 743 mmHg 74%
06:00 +20°C° 0 mm 3 mps 743 mmHg 69%
07:00 +22°C° 0 mm 4 mps 743 mmHg 64%
08:00 +25°C° 0 mm 4 mps 743 mmHg 59%
09:00 +27°C° 0 mm 4 mps 743 mmHg 56%
10:00 +29°C° 0 mm 4 mps 742 mmHg 54%
11:00 +30°C° 0 mm 4 mps 742 mmHg 51%
12:00 +30°C° 0 mm 4 mps 742 mmHg 52%
13:00 +30°C° 0 mm 4 mps 742 mmHg 53%
14:00 +31°C° 0 mm 3 mps 741 mmHg 53%
15:00 +31°C° 0.1 mm 3 mps 741 mmHg 53%
16:00 +31°C° 0.1 mm 3 mps 740 mmHg 53%
17:00 +31°C° 0.1 mm 3 mps 740 mmHg 53%
18:00 +28°C° 0.4 mm 3 mps 739 mmHg 60%
19:00 +26°C° 0.4 mm 4 mps 739 mmHg 67%
20:00 +23°C° 0.4 mm 4 mps 739 mmHg 73%
21:00 +22°C° 0.3 mm 3 mps 739 mmHg 77%
22:00 +21°C° 0.3 mm 3 mps 739 mmHg 80%
23:00 +21°C° 0.3 mm 3 mps 739 mmHg 84%

Tomorrow, 13 July, Monday

Time Temperature Precipitation Wind Pressure Humidity
00:00 +20°C° 0 mm 2 mps 738 mmHg 85%
01:00 +20°C° 0 mm 2 mps 738 mmHg 86%
02:00 +21°C° 0 mm 1 mps 738 mmHg 88%
03:00 +20°C° 0 mm 2 mps 737 mmHg 88%
04:00 +20°C° 0 mm 2 mps 737 mmHg 89%
05:00 +20°C° 0 mm 3 mps 737 mmHg 90%
06:00 +22°C° 0 mm 3 mps 737 mmHg 82%
07:00 +24°C° 0 mm 3 mps 737 mmHg 74%
08:00 +26°C° 0 mm 2 mps 737 mmHg 66%
09:00 +28°C° 0 mm 2 mps 737 mmHg 60%
10:00 +29°C° 0 mm 1 mps 737 mmHg 55%
11:00 +31°C° 0 mm 1 mps 736 mmHg 49%
12:00 +31°C° 0 mm 1 mps 736 mmHg 47%
13:00 +32°C° 0 mm 1 mps 736 mmHg 46%
14:00 +32°C° 0 mm 1 mps 736 mmHg 44%
15:00 +31°C° 0.1 mm 2 mps 735 mmHg 49%
16:00 +30°C° 0.1 mm 3 mps 735 mmHg 53%
17:00 +29°C° 0.1 mm 3 mps 734 mmHg 58%
18:00 +26°C° 4.3 mm 3 mps 735 mmHg 68%
19:00 +24°C° 4.3 mm 3 mps 735 mmHg 78%
20:00 +20°C° 4.3 mm 3 mps 735 mmHg 88%
21:00 +20°C° 1.2 mm 2 mps 735 mmHg 89%
22:00 +21°C° 1.2 mm 1 mps 735 mmHg 90%
23:00 +19°C° 1.2 mm 0 mps 735 mmHg 90%

Day after tomorrow, 14 July, Tuesday

Time Temperature Precipitation Wind Pressure Humidity
00:00 +20°C° 0 mm 1 mps 735 mmHg 92%
01:00 +20°C° 0 mm 1 mps 735 mmHg 93%
02:00 +18°C° 0 mm 2 mps 735 mmHg 95%
03:00 +19°C° 0 mm 2 mps 735 mmHg 94%
04:00 +19°C° 0 mm 2 mps 735 mmHg 93%
05:00 +19°C° 0 mm 2 mps 735 mmHg 93%
06:00 +19°C° 0.1 mm 3 mps 735 mmHg 92%
07:00 +19°C° 0.1 mm 3 mps 735 mmHg 92%
08:00 +19°C° 0.1 mm 4 mps 736 mmHg 91%
09:00 +20°C° 0.1 mm 4 mps 736 mmHg 87%
10:00 +21°C° 0.1 mm 4 mps 736 mmHg 82%
11:00 +22°C° 0.1 mm 4 mps 736 mmHg 78%
12:00 +22°C° 0.1 mm 5 mps 736 mmHg 77%
13:00 +22°C° 0.1 mm 6 mps 736 mmHg 75%
14:00 +22°C° 0.1 mm 6 mps 736 mmHg 73%
15:00 +22°C° 0.1 mm 6 mps 736 mmHg 74%
16:00 +21°C° 0.1 mm 6 mps 736 mmHg 74%
17:00 +21°C° 0.1 mm 6 mps 736 mmHg 74%
18:00 +20°C° 0.1 mm 5 mps 736 mmHg 78%
19:00 +18°C° 0.1 mm 4 mps 737 mmHg 83%
20:00 +17°C° 0.1 mm 4 mps 737 mmHg 87%
21:00 +15°C° 0 mm 4 mps 737 mmHg 89%
22:00 +15°C° 0 mm 5 mps 736 mmHg 90%
23:00 +14°C° 0 mm 5 mps 736 mmHg 92%

15 July, Wednesday

Time Temperature Precipitation Wind Pressure Humidity
00:00 +15°C° 0.4 mm 6 mps 736 mmHg 92%
01:00 +15°C° 0.4 mm 7 mps 736 mmHg 92%
02:00 +15°C° 0.4 mm 7 mps 737 mmHg 92%
03:00 +15°C° 0.1 mm 7 mps 737 mmHg 92%
04:00 +15°C° 0.1 mm 7 mps 737 mmHg 92%
05:00 +15°C° 0.1 mm 7 mps 737 mmHg 92%
06:00 +15°C° 0.1 mm 7 mps 738 mmHg 91%
07:00 +15°C° 0.1 mm 6 mps 738 mmHg 90%
08:00 +15°C° 0.1 mm 6 mps 739 mmHg 89%
09:00 +16°C° 0.1 mm 6 mps 739 mmHg 84%
10:00 +17°C° 0.1 mm 6 mps 740 mmHg 80%
11:00 +19°C° 0.1 mm 6 mps 740 mmHg 76%
12:00 +20°C° 0.1 mm 6 mps 740 mmHg 69%
13:00 +22°C° 0.1 mm 7 mps 741 mmHg 62%
14:00 +23°C° 0.1 mm 7 mps 741 mmHg 55%
15:00 +23°C° 0.1 mm 6 mps 741 mmHg 54%
16:00 +23°C° 0.1 mm 6 mps 741 mmHg 54%
17:00 +23°C° 0.1 mm 5 mps 741 mmHg 54%
18:00 +21°C° 0 mm 4 mps 742 mmHg 59%
19:00 +20°C° 0 mm 3 mps 742 mmHg 65%
20:00 +18°C° 0 mm 3 mps 742 mmHg 70%
21:00 +17°C° 0 mm 3 mps 742 mmHg 73%
22:00 +16°C° 0 mm 2 mps 742 mmHg 76%
23:00 +16°C° 0 mm 2 mps 742 mmHg 78%

16 July, Thursday

Time Temperature Precipitation Wind Pressure Humidity
00:00 +15°C° 0 mm 2 mps 742 mmHg 80%
01:00 +15°C° 0 mm 2 mps 742 mmHg 82%
02:00 +14°C° 0 mm 2 mps 742 mmHg 83%
03:00 +14°C° 0 mm 2 mps 742 mmHg 83%
04:00 +15°C° 0 mm 2 mps 742 mmHg 83%
05:00 +15°C° 0 mm 2 mps 742 mmHg 83%
06:00 +17°C° 0 mm 2 mps 742 mmHg 74%
07:00 +19°C° 0 mm 2 mps 742 mmHg 66%
08:00 +21°C° 0 mm 2 mps 742 mmHg 58%
09:00 +23°C° 0 mm 2 mps 742 mmHg 54%
10:00 +24°C° 0 mm 3 mps 742 mmHg 51%
11:00 +25°C° 0 mm 3 mps 742 mmHg 47%
12:00 +25°C° 0 mm 3 mps 742 mmHg 48%
13:00 +25°C° 0 mm 3 mps 742 mmHg 49%
14:00 +25°C° 0 mm 3 mps 742 mmHg 50%
15:00 +25°C° 0 mm 3 mps 742 mmHg 51%
16:00 +25°C° 0 mm 2 mps 741 mmHg 52%
17:00 +25°C° 0 mm 2 mps 741 mmHg 53%
18:00 +23°C° 0 mm 2 mps 741 mmHg 57%
19:00 +22°C° 0 mm 1 mps 741 mmHg 61%
20:00 +20°C° 0 mm 1 mps 741 mmHg 66%
21:00 +17°C° 0 mm 0 mps 741 mmHg 67%
22:00 +17°C° 0 mm 0 mps 741 mmHg 68%
23:00 +16°C° 0 mm 0 mps 741 mmHg 69%

17 July, Friday

Time Temperature Precipitation Wind Pressure Humidity
00:00 +16°C° 0 mm 0 mps 741 mmHg 70%
01:00 +16°C° 0 mm 0 mps 741 mmHg 71%
02:00 +16°C° 0 mm 0 mps 741 mmHg 72%
03:00 +16°C° 0 mm 0 mps 741 mmHg 72%
04:00 +18°C° 0 mm 1 mps 741 mmHg 72%
05:00 +19°C° 0 mm 1 mps 741 mmHg 72%
06:00 +20°C° 0 mm 1 mps 741 mmHg 67%
07:00 +22°C° 0 mm 1 mps 742 mmHg 61%
08:00 +24°C° 0 mm 2 mps 742 mmHg 55%
09:00 +25°C° 0 mm 2 mps 742 mmHg 51%
10:00 +26°C° 0 mm 2 mps 742 mmHg 46%
11:00 +27°C° 0 mm 2 mps 742 mmHg 41%
12:00 +28°C° 0 mm 2 mps 742 mmHg 40%
13:00 +28°C° 0 mm 2 mps 741 mmHg 39%
14:00 +28°C° 0 mm 1 mps 741 mmHg 37%
15:00 +28°C° 0 mm 1 mps 741 mmHg 38%
16:00 +28°C° 0 mm 1 mps 741 mmHg 39%
17:00 +28°C° 0 mm 1 mps 741 mmHg 40%
18:00 +26°C° 0 mm 1 mps 741 mmHg 45%
19:00 +25°C° 0 mm 1 mps 741 mmHg 49%
20:00 +23°C° 0 mm 1 mps 741 mmHg 53%
21:00 +23°C° 0 mm 1 mps 741 mmHg 54%
22:00 +22°C° 0 mm 1 mps 741 mmHg 56%
23:00 +21°C° 0 mm 1 mps 741 mmHg 58%
Show more